TimeEDT,TemperatureF,Dew PointF,Humidity,Sea Level PressureIn,VisibilityMPH,Wind Direction,Wind SpeedMPH,Gust SpeedMPH,PrecipitationIn,Events,Conditions,WindDirDegrees,DateUTC
12:54 AM,25.0,18.0,75,30.19,6.0,NW,9.2,-,0.00,,Haze,310,2013-03-14 04:54:00
1:10 AM,24.8,17.6,74,30.16,6.0,WNW,9.2,-,0.00,Snow,Light Snow,300,2013-03-14 05:10:00
1:31 AM,24.8,19.4,80,30.16,6.0,NW,10.4,-,0.00,Snow,Light Snow,310,2013-03-14 05:31:00
1:54 AM,25.0,18.0,75,30.19,7.0,NW,11.5,-,0.00,Snow,Light Snow,310,2013-03-14 05:54:00
2:54 AM,24.1,17.1,75,30.20,10.0,WNW,9.2,-,0.00,,Mostly Cloudy,300,2013-03-14 06:54:00
3:54 AM,25.0,18.0,75,30.20,10.0,WNW,6.9,-,N/A,,Overcast,300,2013-03-14 07:54:00
4:34 AM,24.8,17.6,74,30.16,10.0,NW,12.7,-,N/A,,Overcast,310,2013-03-14 08:34:00
4:54 AM,25.0,18.0,75,30.20,6.0,NW,10.4,-,0.00,Snow,Light Snow,320,2013-03-14 08:54:00
5:44 AM,21.2,14.0,74,30.16,10.0,NNW,8.1,-,0.00,,Scattered Clouds,330,2013-03-14 09:44:00
5:54 AM,19.9,12.9,74,30.20,10.0,NNW,6.9,-,0.00,,Partly Cloudy,330,2013-03-14 09:54:00
6:54 AM,12.9,7.0,77,30.22,10.0,NW,4.6,-,N/A,,Clear,310,2013-03-14 10:54:00
7:54 AM,10.0,3.9,76,30.24,10.0,Calm,Calm,-,N/A,,Clear,0,2013-03-14 11:54:00
8:54 AM,9.0,6.1,88,30.24,10.0,Calm,Calm,-,N/A,,Clear,0,2013-03-14 12:54:00
9:54 AM,17.1,12.9,84,30.26,10.0,Calm,Calm,-,N/A,,Clear,0,2013-03-14 13:54:00
10:54 AM,25.0,8.1,49,30.25,10.0,Calm,Calm,-,N/A,,Clear,0,2013-03-14 14:54:00
11:54 AM,26.1,12.0,55,30.24,10.0,NW,8.1,-,N/A,,Clear,310,2013-03-14 15:54:00
12:54 PM,27.0,12.9,56,30.22,10.0,WNW,9.2,-,N/A,,Clear,300,2013-03-14 16:54:00
1:54 PM,30.0,14.0,51,30.20,10.0,NNW,6.9,-,0.00,,Clear,340,2013-03-14 17:54:00
2:54 PM,30.9,14.0,50,30.18,10.0,NNW,11.5,-,0.00,,Clear,330,2013-03-14 18:54:00
3:54 PM,30.9,14.0,50,30.16,10.0,West,10.4,-,0.00,,Clear,260,2013-03-14 19:54:00
4:54 PM,32.0,12.9,45,30.14,10.0,West,10.4,-,0.00,,Clear,270,2013-03-14 20:54:00
5:54 PM,30.9,15.1,52,30.13,10.0,WSW,12.7,18.4,N/A,,Clear,250,2013-03-14 21:54:00
6:54 PM,30.0,17.1,59,30.12,10.0,WSW,8.1,-,N/A,,Clear,250,2013-03-14 22:54:00
7:54 PM,28.9,18.0,64,30.09,10.0,WSW,6.9,-,N/A,,Clear,240,2013-03-14 23:54:00
8:54 PM,28.9,19.0,67,30.05,10.0,WSW,5.8,-,N/A,,Clear,240,2013-03-15 00:54:00
9:54 PM,30.0,19.0,64,30.01,10.0,SW,5.8,-,N/A,,Overcast,220,2013-03-15 01:54:00
10:54 PM,30.0,17.1,59,30.01,10.0,SW,9.2,-,N/A,,Overcast,230,2013-03-15 02:54:00
11:54 PM,30.0,18.0,61,29.99,10.0,SW,5.8,-,N/A,,Overcast,230,2013-03-15 03:54:00